This is the latest recevied weather packets stored in our database for station/object VR2OT-10. If no packets are shown the sender has not sent any weather packets the latest 10 day(s).
| Time | Temp. | Humidity | Pressure | Rain* | Wind** | Luminosity | Snow |
|---|---|---|---|---|---|---|---|
| 1777831338 | - | 91% | 1013.1 hPa | - | 0 m/s | - | - |
| 1777829538 | - | 92% | 1013.5 hPa | - | 0 m/s | - | - |
| 1777827741 | - | 93% | 1014.1 hPa | - | - | - | - |
| 1777826838 | - | 93% | 1014.2 hPa | - | 0 m/s | - | - |
| 1777825940 | - | 93% | 1014.3 hPa | - | 0.45 m/s, 180° | - | - |
| 1777825039 | - | 93% | 1014.2 hPa | - | 2.68 m/s, 135° | - | - |
| 1777824138 | - | 94% | 1014.3 hPa | - | 1.79 m/s, 135° | - | - |
| 1777823238 | - | 95% | 1014.2 hPa | - | 3.13 m/s, 135° | - | - |
| 1777821438 | - | 93% | 1014 hPa | - | 2.68 m/s, 90° | - | - |
| 1777820538 | - | 94% | 1014 hPa | - | 3.58 m/s, 135° | - | - |
| 1777818737 | - | 94% | 1013.8 hPa | - | 3.13 m/s, 135° | - | - |
| 1777817837 | - | 94% | 1014 hPa | - | 1.34 m/s, 135° | - | - |
| 1777816938 | - | 94% | 1013.8 hPa | - | 0.45 m/s, 225° | - | - |
| 1777815139 | - | 94% | 1014 hPa | - | 3.13 m/s, 315° | - | - |
| 1777814238 | - | 95% | 1013.8 hPa | - | 1.79 m/s, 315° | - | - |
| 1777813337 | - | 94% | 1013.5 hPa | - | 1.34 m/s, 270° | - | - |
| 1777810638 | - | 93% | 1013 hPa | - | 0 m/s | - | - |
| 1777809740 | - | 94% | 1012.7 hPa | - | 2.68 m/s, 135° | - | - |
| 1777808840 | - | 94% | 1012.3 hPa | - | 3.58 m/s, 135° | - | - |
| 1777807938 | - | 94% | 1012.2 hPa | - | 2.68 m/s, 135° | - | - |
| 1777806139 | - | 95% | 1011.7 hPa | - | 2.24 m/s, 135° | - | - |
| 1777805238 | - | 95% | 1011.6 hPa | - | 3.13 m/s, 135° | - | - |
| 1777804339 | - | 95% | 1011.2 hPa | - | 1.34 m/s, 135° | - | - |
| 1777803438 | - | 94% | 1011 hPa | - | - | - | - |
| 1777802537 | - | 94% | 1010.8 hPa | - | 0.45 m/s, 90° | - | - |
* Rain since midnight (hover to see other rain measurements)
** Current wind speed in m/s (hover to see current wind gust speed)